Location: Codford Saint Peter
(51.1597°N, 2.0531°W)
Time: 21:40:49
(UTC+00:00)

Cosmos 1544 - Visible Passes

Search period start: 28 November 2021 00:00
Search period end: 08 December 2021 00:00
Orbit: 467 x 486 km, 82.5° (Epoch: 28 November)

Date Brightness Start Highest point End Pass type
(mag) Time Alt. Az. Time Alt. Az. Time Alt. Az.
03 Dec 6.3 06:54:33 10° ESE 06:55:54 12° E 06:57:16 10° ENE visible
06 Dec 5.3 07:05:47 10° SSE 07:08:52 28° E 07:11:58 10° NNE visible
06 Dec 5.4 18:24:45 10° N 18:25:15 13° N 18:25:15 13° N visible
07 Dec 6.0 06:39:21 10° SE 06:41:49 18° E 06:44:18 10° NE visible
07 Dec 3.2 17:57:37 10° N 18:01:09 47° ENE 18:04:39 10° SSE visible
07 Dec 6.1 19:33:32 10° NW 19:35:41 15° W 19:37:51 10° WSW visible
